TimeEDT,TemperatureF,Dew PointF,Humidity,Sea Level PressureIn,VisibilityMPH,Wind Direction,Wind SpeedMPH,Gust SpeedMPH,PrecipitationIn,Events,Conditions,WindDirDegrees,DateUTC
12:05 AM,60.8,55.4,82,29.91,10.0,NNE,3.5,-,0.00,Rain,Light Rain,20,2012-10-03 04:05:00
12:53 AM,61.0,55.9,83,29.90,10.0,Calm,Calm,-,0.00,,Overcast,0,2012-10-03 04:53:00
1:53 AM,62.1,55.0,78,29.91,10.0,North,3.5,-,N/A,,Overcast,10,2012-10-03 05:53:00
2:18 AM,60.8,55.4,82,29.90,10.0,North,4.6,-,0.00,,Overcast,10,2012-10-03 06:18:00
2:53 AM,61.0,55.9,83,29.91,10.0,Calm,Calm,-,0.00,,Overcast,0,2012-10-03 06:53:00
3:53 AM,61.0,55.9,83,29.91,10.0,North,3.5,-,N/A,,Overcast,360,2012-10-03 07:53:00
4:53 AM,61.0,55.9,83,29.92,10.0,Calm,Calm,-,N/A,,Overcast,0,2012-10-03 08:53:00
5:53 AM,61.0,55.9,83,29.94,10.0,Calm,Calm,-,0.00,,Overcast,0,2012-10-03 09:53:00
6:53 AM,60.1,57.0,90,29.96,9.0,Calm,Calm,-,N/A,,Overcast,0,2012-10-03 10:53:00
7:44 AM,60.8,57.2,88,29.98,2.5,Calm,Calm,-,N/A,,Overcast,0,2012-10-03 11:44:00
7:53 AM,59.0,57.9,96,29.98,2.0,Calm,Calm,-,N/A,,Overcast,0,2012-10-03 11:53:00
8:00 AM,60.8,59.0,94,29.98,1.5,Calm,Calm,-,N/A,,Overcast,0,2012-10-03 12:00:00
8:30 AM,60.8,59.0,94,29.99,2.5,Calm,Calm,-,N/A,,Overcast,0,2012-10-03 12:30:00
8:53 AM,60.1,59.0,96,29.99,2.5,Calm,Calm,-,N/A,,Overcast,0,2012-10-03 12:53:00
9:21 AM,60.8,60.8,100,29.99,2.5,Calm,Calm,-,N/A,,Overcast,0,2012-10-03 13:21:00
9:53 AM,63.0,60.1,90,30.00,5.0,SW,3.5,-,N/A,,Overcast,230,2012-10-03 13:53:00
10:53 AM,64.9,57.9,78,30.01,9.0,SW,8.1,-,N/A,,Overcast,230,2012-10-03 14:53:00
11:53 AM,64.9,57.0,75,30.01,10.0,SW,10.4,-,N/A,,Overcast,230,2012-10-03 15:53:00
12:09 PM,66.2,57.2,73,30.01,10.0,SW,10.4,-,N/A,,Overcast,220,2012-10-03 16:09:00
12:53 PM,69.1,57.0,65,30.01,10.0,SSW,10.4,-,N/A,,Overcast,210,2012-10-03 16:53:00
1:04 PM,68.0,55.4,64,30.01,10.0,SW,15.0,20.7,N/A,,Overcast,220,2012-10-03 17:04:00
1:13 PM,68.0,55.4,64,30.01,10.0,SSW,10.4,-,N/A,,Overcast,210,2012-10-03 17:13:00
1:53 PM,68.0,55.9,65,30.00,10.0,SW,11.5,-,N/A,,Overcast,220,2012-10-03 17:53:00
2:53 PM,66.9,54.0,63,30.01,10.0,SSW,12.7,-,N/A,,Overcast,210,2012-10-03 18:53:00
3:18 PM,66.2,55.4,68,30.01,10.0,SW,8.1,19.6,N/A,,Overcast,220,2012-10-03 19:18:00
3:44 PM,64.4,53.6,68,30.01,10.0,SW,13.8,-,N/A,,Overcast,230,2012-10-03 19:44:00
3:53 PM,64.9,53.1,65,30.01,10.0,SW,11.5,-,N/A,,Overcast,230,2012-10-03 19:53:00
4:53 PM,64.0,55.0,73,30.03,10.0,SSW,11.5,-,N/A,,Overcast,200,2012-10-03 20:53:00
5:04 PM,62.6,55.4,77,30.03,9.0,SSW,11.5,-,0.00,Rain,Light Rain,210,2012-10-03 21:04:00
5:44 PM,62.6,55.4,77,30.04,10.0,SW,8.1,-,0.00,,Overcast,230,2012-10-03 21:44:00
5:53 PM,63.0,55.0,75,30.04,10.0,SSW,6.9,-,0.00,,Overcast,210,2012-10-03 21:53:00
6:53 PM,62.1,55.0,78,30.06,10.0,SSW,9.2,-,N/A,,Overcast,200,2012-10-03 22:53:00
7:53 PM,63.0,55.0,75,30.06,10.0,South,5.8,-,N/A,,Overcast,180,2012-10-03 23:53:00
8:53 PM,62.1,55.0,78,30.07,10.0,South,8.1,-,N/A,,Mostly Cloudy,180,2012-10-04 00:53:00
9:53 PM,62.1,55.0,78,30.08,10.0,South,6.9,-,N/A,,Overcast,190,2012-10-04 01:53:00
10:53 PM,62.6,55.4,77,30.09,10.0,South,8.1,-,N/A,,Scattered Clouds,180,2012-10-04 02:53:00
11:53 PM,61.0,55.0,81,30.08,10.0,South,6.9,-,N/A,,Partly Cloudy,180,2012-10-04 03:53:00